Regional Weather Roundup
Issued by NWS

Home | Current Version | Previous Version | Graphics & Text | Print | Product List | Glossary On
Versions: 1 2 3 4 5 6 7 8 9 10 11 12 13 14 15 16 17 18 19 20 21 22 23 24 25 26 27 28 29 30 31 32 33 34 35 36 37 38 39 40 41 42 43 44 45 46 47 48 49 50
000
ASUS43 KDMX 060207
RWRIA

WEATHER ROUNDUP FOR IOWA
NATIONAL WEATHER SERVICE DES MOINES IA
900 PM CDT SUN JUL 05 2015

NOTE: "FAIR" INDICATES FEW OR NO CLOUDS BELOW 12,000 FEET WITH NO
SIGNIFICANT WEATHER AND/OR OBSTRUCTIONS TO VISIBILITY.

* - THESE STATIONS ARE NOT NWS STATIONS...THUS NOT UNDER NWS
QUALITY CONTROL.  THEY ALSO DO NOT REPORT WEATHER SUCH
AS PRECIPITATION OR FOG.

IAZ001>003-012>014-020>022-031>034-043>046-060300-
   NORTHWEST IOWA

CITY           SKY/WX    TMP DP  RH WIND       PRES   REMARKS
CARROLL *      CLEAR     79  72  78 SE8       29.84F HX  82
CHEROKEE *     PTCLDY    81  72  74 S10       29.78F HX  84
DENISON *      CLEAR     81  72  74 MISG      29.79F HX  84
LE MARS *      CLEAR     81  73  78 SE9G15    29.76F HX  85
ORANGE CITY *  CLEAR     79  72  78 S9        29.77F HX  82
SHELDON *      PTCLDY    81  81 100 SE15      29.76F HX  91
SIOUX CITY     MOCLDY    84  73  69 SE15      29.74F HX  90
SPENCER        CLEAR     81  68  64 S14       29.79F HX  84
STORM LAKE *   CLEAR     79  72  78 SE12      29.82F HX  82
$$

IAZ055>058-069>071-079>083-090>094-060300-
   SOUTHWEST IOWA

CITY           SKY/WX    TMP DP  RH WIND       PRES   REMARKS
ATLANTIC *     CLEAR     82  73  74 S8        29.84F HX  88
AUDUBON *      CLEAR     79  72  78 SE3       29.86F HX  82
CLARINDA *     CLEAR     82  77  83 S9        29.86F HX  91
COUNCIL BLFS * CLEAR     82  75  78 SE12      29.81F HX  89
CRESTON *      CLEAR     79  72  78 SE9       29.89S HX  82
HARLAN  *      CLEAR     81  79  94 SE13      29.86F HX  89
LAMONI         CLEAR     80  72  76 SE9       29.90S HX  84
RED OAK *      CLEAR     82  73  74 SE10      29.83F HX  88
SHENANDOAH *   CLEAR     84  75  74 SE13G20   29.83F HX  92
$$

IAZ047>049-059>061-072>074-084-060300-
   CENTRAL IOWA

CITY           SKY/WX    TMP DP  RH WIND       PRES   REMARKS
AMES           CLEAR     76  68  76 SE8       29.87F
ANKENY *       CLEAR     79  70  73 SE9G15    29.87F HX  81
CHARITON *     CLEAR     77  70  78 SE8       29.91S
DES MOINES     PTCLDY    81  69  67 SE13      29.87F HX  84
GRINNELL*      CLEAR     75  68  78 SE7       29.92F
KNOXVILLE *    CLEAR     77  68  73 SE6       29.90R
MARSHALLTOWN   CLEAR     77  68  73 S9        29.90S
PELLA *        CLEAR     77  72  83 SE6       29.91S
PERRY *          N/A     77  70  78 SE7       29.86F
$$

IAZ004>006-015-016-023>025-035-036-060300-
   NORTH CENTRAL IOWA

CITY           SKY/WX    TMP DP  RH WIND       PRES   REMARKS
ALGONA *       CLEAR     79  72  78 S15       29.83F HX  82
CLARION *      CLEAR     77  68  73 S15G21    29.86F
ESTHERVILLE    PTCLDY    79  69  71 S16G23    29.80F HX  81
FORT DODGE *   PTCLDY    79  68  69 SE10G16   29.86F HX  81
MASON CITY     CLEAR     77  67  71 SE14      29.88F
FOREST CITY *  CLEAR     75  64  69 SE13      29.86F
IOWA FALLS *     N/A     75  68  78 SE8       29.90F
$$

IAZ007>011-017>019-026>030-037>042-050>054-066-060300-
   NORTHEAST IOWA

CITY           SKY/WX    TMP DP  RH WIND       PRES   REMARKS
CEDAR RAPIDS   CLEAR     76  69  79 SE6       29.93F
CHARLES CITY * CLEAR     75  72  88 SE10      29.90F
CLINTON *      PTCLDY    73  64  73 S7        30.00F
DECORAH *        N/A    N/A N/A N/A MISG        N/A
DUBUQUE        CLEAR     71  66  84 SE9       29.98S
MONTICELLO *   CLEAR     73  70  88 SE8       29.95S
OELWEIN *      CLEAR     73  70  88 S8        29.94S
WATERLOO       CLEAR     78  67  68 SE12      29.90F HX  80
$$

IAZ064-065-067-068-078-060300-
   EAST CENTRAL IOWA

CITY           SKY/WX    TMP DP  RH WIND       PRES   REMARKS
DAVENPORT      PTCLDY    75  65  70 SE7       29.98S
IOWA CITY      CLEAR     76  70  82 SE8       29.94F
MT. PLEASANT * CLEAR     77  68  73 SE7       29.95F
MUSCATINE *    CLEAR     77  68  73 SE7       29.95S
QUAD CITIES    PTCLDY    74  66  76 SE7       29.97S
$$

IAZ062-063-075>077-085>089-095>099-060300-
   SOUTHEAST IOWA

CITY           SKY/WX    TMP DP  RH WIND       PRES   REMARKS
BURLINGTON     PTCLDY    77  70  79 SE7       29.96F
FAIRFIELD *    CLEAR     77  70  78 SE12      29.93F
FORT MADISON * CLEAR     75  70  83 SE6       29.97S
KEOKUK *       CLEAR     77  70  78 SE9       29.95F
OSKALOOSA *      N/A     73  68  83 SE5       29.92S
CENTERVILLE *  CLEAR     75  68  78 SE8       29.94S
OTTUMWA        PTCLDY    77  70  79 SE9       29.90F
WASHINGTON *   CLEAR     75  70  83 SE7       29.95F
$$

ABBREVIATIONS USED IN REMARKS
   TC - TEMPERATURES IN CELSIUS
  WCI - WIND CHILL INDEX
   HX - HEAT INDEX
  VSB - VISIBILITY
$$




USA.gov is the U.S. government's official web portal to all federal, state and local government web resources and services.